{"data":{"norad_id":53191,"epoch":"2026-09-20T03:19:36.915744Z","epoch_age_seconds":103398,"freshness":"FRESH","line1":"1 53191U 22084C   26263.13862171  .00000329  00000+0  11387-4 0  9990","line2":"2 53191  97.4750 327.2275 0000689 130.0086 230.1219 15.36966848228952","mean_motion":15.36966848,"eccentricity":6.89e-5,"inclination_deg":97.475,"raan_deg":327.2275,"arg_perigee_deg":130.0086,"mean_anomaly_deg":230.1219,"bstar":1.1387e-5,"rev_number":22895,"period_min":93.691025403301,"perigee_km":454.61383780295,"apogee_km":455.55545574588,"semimajor_km":6833.2216467744,"source":"CELESTRAK","updated_at":"2026-09-20T09:00:40.189257Z"}}